Tracking 20083 objects as of 12-Dec-2019
HD Live streaming from Space Station
objects crossing your sky now

COSMOS 2251 DEB

Track COSMOS 2251 DEB now!
10-day predictions


NORAD ID: 34469
Int'l Code: 1993-036TN
Perigee: 676.6 km
Apogee: 695.8 km
Inclination: 74.0 °
Period: 98.3 minutes
Semi major axis: 7057 km
RCS: 0.033 m2 (small)
Launch date: June 16, 1993
Source: Commonwealth of Independent States (former USSR) (CIS)
Launch site: PLESETSK MISSILE AND SPACE COMPLEX (PKMTR)

Note: This is SATELLITE DEBRIS
aabbcc
Your satellite tracking list
Your tracking list is empty




NASA's NSSDC Master Catalog

Two Line Element Set (TLE):
1 34469U 93036TN  19345.77353431 +.00001599 +00000-0 +30786-3 0  9993
2 34469 074.0163 138.1838 0013630 070.6073 289.6567 14.64378943572003
Source of the keplerian elements: AFSPC